Back to catalog

VIGORIDE 5

AliveScienceSSO
NORAD 55056·PAYLOAD·🇺🇸 United States

Launched Jan 3, 2023 from Cape Canaveral Space Force Station

Loading…

Next Passes (next 24 hours)

TLE

FreshSource: Space-Track

Epoch: Sep 14, 2026, 11:17 UTC

1 55056U 23001AZ  26257.47043102  .00071080  00000-0  57619-3 0  9997
2 55056  97.3136 332.5074 0006394 183.9049 176.2165 15.70525254206633

Track VIGORIDE 5 in real time with AllMySat

Download on the App Store